Regional Weather Roundup
Issued by NWS Columbia, SC

Home | Current Version | Previous Version | Text Only | Print | Product List | Glossary On
Versions: 1 2 3 4 5 6 7 8 9 10 11 12 13 14 15 16 17 18 19 20 21 22 23 24 25 26 27 28 29 30 31 32 33 34 35 36 37 38 39 40 41 42 43 44 45 46 47 48 49 50
000
ASUS42 KCAE 280710
RWRCAE
REGIONAL WEATHER ROUNDUP
NATIONAL WEATHER SERVICE COLUMBIA SC
300 AM EDT THU AUG 28 2014

NOTE: "FAIR" INDICATES FEW OR NO CLOUDS BELOW 12,000 FEET WITH NO
SIGNIFICANT WEATHER AND/OR OBSTRUCTIONS TO VISIBILITY.

NOT ALL STATIONS ARE QUALITY CONTROLLED BY THE NATIONAL
WEATHER SERVICE. USE DATA WITH CAUTION...ESPECIALLY
DEWPOINT OBSERVATIONS.

SCZ001>056-GAZ040-063>065-077-280800-
...UPSTATE SOUTH CAROLINA...

CITY           SKY/WX    TMP DP  RH WIND       PRES   REMARKS
ANDERSON       CLEAR     64  60  87 CALM      30.03F
LIBERTY        FAIR      62  32  32 CALM      30.03F
SPARTANBURG    FAIR      66  66 100 CALM      30.02F
CLEMSON        CLEAR     72  67  84 CALM      30.04F
GREENVILLE     CLEAR     70  63  78 W3        30.04F
GREENWOOD      CLEAR     61  56  83 CALM      30.03F
GREER          CLEAR     67  62  84 CALM      30.02F
ROCK HILL      CLEAR     61  59  93 CALM      30.02F
LAURENS        FAIR      63  50  63 CALM      30.03F


...CENTRAL SOUTH CAROLINA...

CITY           SKY/WX    TMP DP  RH WIND       PRES   REMARKS
COLUMBIA APT   CLEAR     64  58  80 W6        30.00S
COLUMBIA OWENS CLEAR     66  61  84 CALM      30.01S
DARLINGTON     CLEAR     61  55  82 CALM      30.00S
FLORENCE       CLEAR     64  58  80 W6        29.98F
MCENTIRE ANGB  CLEAR     62  59  92 CALM      30.00F
ORANGEBURG     CLEAR     63  60  90 CALM      30.01S
SUMTER SHAW    CLEAR     66  59  78 CALM      29.98F
NEWBERRY       FAIR      61  55  82 CALM      30.05S
AIKEN          FAIR      63  59  88 CALM      30.05S
BARNWELL       FAIR      63  57  82 CALM      30.02F
MANNING        FAIR      63 N/A N/A CALM      30.00S
CAMDEN         FAIR      61  57  88 CALM      30.01S
LANCASTER      LGT RAIN  61  61 100 CALM      30.02S
WINNSBORO      FAIR      64  59  82 CALM      30.01F


...EASTERN AND COASTAL SOUTH CAROLINA...

CITY           SKY/WX    TMP DP  RH WIND       PRES   REMARKS
MYRTLE BEACH   CLEAR     72  63  73 CALM      29.98F
CONWAY         FAIR      63  63 100 CALM      29.99S
MARION         FAIR      63  61  94 CALM      29.98F
HARTSVILLE     FAIR      61  50  67 CALM      30.00S
FLORENCE       CLEAR     64  58  80 W6        29.98F
DARLINGTON     CLEAR     61  55  82 CALM      30.00S
CHARLESTON APT CLEAR     72  68  87 CALM      29.99F
MOUNT PLEASANT FAIR      70  68  94 CALM      29.99F
WALTERBORO     SUNNY     64 N/A N/A CALM      30.01S
BEAUFORT       CLEAR     71  66  84 W6        30.00F


...EASTERN GEORGIA...

CITY           SKY/WX    TMP DP  RH WIND       PRES   REMARKS
AUGUSTA BUSH F CLEAR     60  58  92 S3        30.00F
AUGUSTA DANIEL CLEAR     73  57  57 CALM      30.01F
THOMSON        CLEAR     61  61 100 CALM      30.06S
WASHINGTON     FAIR      64  57  77 CALM      30.02F
SYLVANIA       SUNNY     65  64  98 CALM      30.02F
STATESBORO     CLEAR     64  64 100 CALM      30.01F
SAVANNAH       CLEAR     69  65  86 W3        30.01S


...SOUTHERN NORTH CAROLINA...

CITY           SKY/WX    TMP DP  RH WIND       PRES   REMARKS
CHARLOTTE      CLEAR     62  60  93 CALM      30.02F
MONROE         CLEAR     63  58  83 SW3       30.01S
WADESBORO      SUNNY     62  59  91 CALM      29.99F
ROCKINGHAM     SUNNY     63  58  86 W3        29.99S
RUTHERFORDTON  CLEAR     64  62  90 N6        30.05S
ASHEVILLE      CLEAR     61  59  93 CALM      30.11F

$$


USA.gov is the U.S. government's official web portal to all federal, state and local government web resources and services.